Location: Altmatt
(47.1333°N, 8.7000°E)
Time: 01:57:16
(UTC+00:00)

Cosmos 2151 - Pass Details

Date: 13 July 2020
Orbit: 580 x 602 km, 82.5° (Epoch: 04 August)

Event Time Altitude Azimuth Distance (km) Brightness Sun altitude
Exits shadow 21:17:32 25° 162° (SSE) 1,207 4.0 -14.9°
Maximum altitude 21:19:47 55° 95° (E) 718 3.1 -15.1°
Drops below altitude 10° 21:23:57 10° 18° (NNE) 1,930 6.2 -15.5°
Sets 21:26:11 0° 14° (NNE) 2,833 7.2 -15.7°
